CAPE
245 209 144 40 0 0 0 0 0 0 0 0 0 0 0 0 0 0 0 0 0 0 7 0 0 0 0 0 0 2 18 109 273 560 749 932 961 1090 1769 2285 2162 2261 2383 1921 1603 1587 1765 1540 1334 1494 1680 1660 1548 1536 1300 1465 1765 1350 1068 1086 1156 1940 2320 2383 2261 2177 2193 2000 2087 1950 1900 2184 2508 2712 2518 2561 2397 1966 2145 2505 2158 2304 2179 2175 2372
0 0 0 0 0 0 0 0 0 0 0 0 0 0 0 0 0 0 0 0 0 0 0 0 0 0 0 0 0 0 0 0 0 42 269 669 814 938 1491 1939 2170 2104 1506 1777 1394 1290 1180 1134 1372 1635 1425 1598 1690 1603 1540 1504 1190 1576 1136 942 1252 1401 2290 2465 2386 2388 2271 2110 2259 1964 2026 1979 2306 2581 2504 2461 2521 2152 2012 2278 2480 2166 1978 1939 2238
0 0 0 0 0 0 0 0 0 0 0 0 0 0 0 0 0 0 0 0 0 0 0 0 0 0 0 0 0 0 0 0 0 44 364 504 895 941 1126 1629 1944 2159 1364 1567 1706 1523 1569 1743 1332 1336 1473 1296 1187 1490 1447 1578 1599 1407 1393 1012 1184 979 2024 2343 2657 2460 2211 2218 2111 2171 2225 2271 2341 2344 2506 2378 2386 2357 2092 2397 2260 2170 2012 2073 2294
0 0 0 0 0 0 0 0 0 0 0 0 0 0 0 0 0 0 0 0 0 0 0 0 0 0 0 0 0 0 0 210 498 659 920 1165 1020 1018 999 965 1306 1361 1848 1485 1328 1147 1319 1771 1951 1835 1600 1223 1234 1142 1095 1309 1522 1369 1243 1306 1339 1332 1855 2285 2740 2455 2185 2125 2235 2397 1973 2015 2207 2259 2337 2461 2212 2489 2272 2087 2342 2009 2029 2301 2126
0 0 0 0 0 0 0 0 0 0 0 0 0 0 0 0 0 0 0 0 0 0 0 0 0 0 0 0 53 382 368 434 607 871 828 774 812 798 709 835 865 835 935 1130 1068 989 1107 1482 1617 1527 1734 904 1045 1192 1263 1077 1312 1681 1406 1456 1564 1380 1082 1962 2158 2285 2331 2473 2112 2194 2009 1771 2271 2041 2098 2309 2327 2300 2293 2093 2115 2291 2388 2352 2270
0 0 0 0 0 0 0 0 0 0 0 0 0 0 0 0 0 0 0 0 0 0 0 0 84 310 464 595 556 506 552 532 591 569 508 568 596 639 634 591 554 513 506 639 820 908 1190 1344 1378 1522 1548 1286 889 1074 1175 1084 1043 1579 1597 1885 1434 926 803 1690 1633 2072 1975 2356 2207 1434 1932 1941 2171 1968 2412 2040 2620 2239 2440 2083 2282 1992 2110 2027 1972
0 0 0 0 0 0 0 0 0 0 0 0 0 0 0 0 0 0 0 0 0 0 0 0 233 355 362 313 398 588 578 676 590 562 549 639 644 638 586 518 519 582 597 538 513 554 918 1406 1268 1173 1105 1289 969 1149 1229 1208 976 1341 1588 1733 1686 1197 847 1228 2054 1998 2182 2161 2119 2103 1874 2005 1769 2424 2427 2294 2177 2205 1492 1756 2076 1975 2086 2180 2152
0 0 0 0 0 0 0 0 0 0 0 0 0 0 0 0 0 0 0 0 0 0 0 139 222 305 269 235 336 746 505 601 623 399 413 497 496 512 581 544 630 781 664 400 363 416 918 1170 1113 1013 965 978 955 1030 1308 1299 1340 1090 1230 1596 1511 1393 1028 873 1424 2130 1934 2320 2049 2015 1982 1802 1770 2238 1920 2249 2079 1804 1282 1636 1861 1942 2065 2054 2214
0 0 0 0 0 0 0 0 0 0 0 0 0 0 0 0 0 0 0 0 0 0 0 0 94 206 243 212 228 335 675 593 698 552 412 467 498 520 564 544 709 494 401 480 458 420 547 974 1002 1109 1066 966 812 824 779 888 988 886 1130 1195 1696 1510 1105 1084 1154 1438 2185 1603 1774 1505 1861 1874 1829 2258 2273 1508 1782 1671 1413 1494 1559 1690 1741 2198 2013
0 0 0 0 0 0 0 0 0 0 0 0 0 0 0 0 0 0 0 0 0 0 39 126 24 67 86 186 252 204 279 727 694 638 375 320 413 580 522 480 459 387 410 393 432 466 430 712 818 748 833 1090 943 845 826 985 1001 968 1098 1500 1510 1576 1466 1435 1468 1414 1638 1666 1577 1700 1893 1569 1714 1774 1801 1425 1984 1844 1868 1573 1847 1587 2348 2174 2074
0 0 0 0 0 0 0 0 0 0 0 0 0 0 0 0 0 0 0 0 0 0 0 85 26 33 63 136 186 170 155 227 223 434 513 423 291 605 498 482 382 363 371 328 372 461 433 517 594 560 610 858 1036 904 810 970 1083 1156 1216 1405 1460 1412 1409 1506 1298 1246 1530 1275 1525 1716 1502 1297 1776 1676 1832 1392 1546 1346 1635 1419 1659 1922 1700 1687 2042
0 0 0 0 0 0 0 0 0 0 0 0 0 0 0 0 0 0 0 0 0 0 0 85 46 26 52 87 121 102 87 105 58 65 47 220 471 523 423 538 393 336 281 259 269 411 405 396 296 454 468 462 675 736 767 938 1043 1147 1222 1580 1701 1695 1720 1669 1542 1356 1276 1131 1078 1424 1149 1207 1263 1487 1772 1379 1488 1292 1679 1678 1779 1280 1380 1982 1554
0 0 0 0 0 0 0 0 0 0 0 0 0 0 0 0 0 0 0 0 0 0 0 0 20 37 26 44 57 68 34 30 29 24 18 60 129 84 258 344 330 339 254 234 198 270 320 375 365 405 394 317 387 468 622 855 958 998 1222 1477 1731 1874 1752 1828 1789 1659 1554 1028 1060 1192 1168 1367 1378 1500 1530 1553 1379 1513 1835 1594 1624 1664 1578 1603 1514
0 0 0 0 0 0 0 0 0 0 0 0 0 0 0 0 0 0 0 0 0 0 0 0 0 4 11 13 17 22 289 26 20 21 16 14 14 19 64 106 264 328 254 172 190 178 278 277 354 322 348 336 330 389 407 501 758 893 1150 1275 1432 1571 1892 1906 1657 1671 1354 1116 926 1081 1216 1266 1129 1189 1306 1484 1389 1446 1811 1898 1440 1442 1308 1443 1372
0 0 0 0 0 0 0 0 0 0 0 0 0 0 0 0 0 0 0 0 0 0 0 0 0 0 0 22 22 10 79 16 13 13 14 14 13 7 14 21 30 249 224 83 85 125 228 237 248 240 326 346 302 321 435 519 626 882 1072 1124 1400 1483 1638 1595 1569 1606 1467 1160 949 1090 1373 1089 1389 1167 1180 1713 1504 1490 1534 1681 1485 1302 1447 1186 1219
0 0 0 0 0 0 0 0 0 0 0 0 0 0 0 0 0 0 0 0 0 0 0 0 0 0 0 0 0 0 11 0 0 0 0 0 0 0 0 0 1 28 219 88 58 85 166 236 204 184 170 229 292 330 416 545 660 825 984 1074 1227 1380 1531 1566 1496 1580 1572 1253 963 1041 1067 1120 1179 1113 1265 1230 1515 1516 1429 1347 1296 1389 1130 1002 1056
0 0 0 0 0 0 0 0 0 0 0 0 0 0 0 0 0 0 0 0 0 0 0 0 0 0 0 0 0 0 0 0 0 0 0 0 0 0 0 0 0 6 52 129 68 65 162 155 176 146 148 143 127 250 344 442 351 351 579 801 1020 1191 1306 1325 1453 1557 1666 1614 1369 1130 1178 908 996 950 1130 1269 1335 1441 1489 1318 1375 1477 1264 1684 1500
0 0 0 0 0 0 0 0 0 0 0 0 0 0 0 0 0 0 0 0 0 0 0 0 0 0 0 0 0 0 0 0 0 0 0 0 0 0 0 0 0 0 4 19 101 76 156 153 182 172 106 116 154 278 309 384 533 490 312 335 379 805 1080 1095 1188 1371 1414 1813 1582 1380 1046 1040 1166 1306 1178 1277 1364 1286 1562 1423 1472 1504 1167 1057 1056
0 0 0 0 0 0 0 0 0 0 0 0 0 0 0 0 0 0 0 0 0 0 0 0 0 0 0 0 0 0 0 0 0 0 0 0 0 0 0 0 0 0 0 18 32 128 77 106 221 245 98 122 158 183 237 363 514 671 485 543 775 891 903 875 980 966 1110 1428 1707 1620 1539 1356 1267 1222 1068 1032 1032 1148 1281 964 1118 1311 1506 1073 1121
0 0 0 1 1 0 0 0 0 0 0 0 0 0 0 0 0 0 0 0 0 0 0 0 0 0 0 0 0 0 0 0 0 0 2 0 0 0 0 0 0 0 0 0 17 95 159 41 212 282 178 169 143 189 215 277 438 673 501 445 499 648 687 756 1006 855 972 1095 990 1380 1576 1458 1182 1300 1256 1206 948 1131 1039 1290 1151 1178 956 1013 856
0 0 0 0 1 0 0 0 0 0 0 0 0 0 0 0 0 0 0 0 0 0 0 0 0 0 0 0 0 0 0 0 0 0 0 0 0 0 0 0 0 0 0 0 0 49 176 81 188 218 345 268 166 163 239 306 448 759 534 600 606 576 587 663 843 709 926 968 1145 1231 1249 1447 1499 1199 1028 938 1206 1295 1138 1126 1015 932 1105 1004 900
0 0 0 0 0 0 0 0 0 0 0 0 0 0 0 0 0 0 0 0 0 0 0 0 0 0 0 0 0 0 0 0 0 0 0 0 0 0 0 0 0 0 0 0 0 10 164 86 49 97 165 331 334 258 290 296 434 529 651 486 485 640 627 690 778 753 750 814 970 1123 1112 1083 1224 1468 1121 1114 1230 1402 1179 1024 1360 1397 1108 1075 974
0 0 0 0 0 0 0 0 0 0 0 0 0 0 0 0 0 0 0 0 0 0 0 0 0 0 0 0 0 0 0 0 0 0 0 0 0 0 0 0 0 0 0 0 0 7 127 141 114 104 91 267 415 370 400 483 603 85 366 826 907 1013 648 723 660 573 648 747 808 876 1007 1042 1164 1158 1153 1207 1268 1091 1288 1348 1123 1417 1211 1037 897
0 0 0 0 0 0 0 0 0 0 0 0 0 0 0 0 0 0 0 0 0 0 0 0 0 0 0 0 0 1 0 0 7 8 1 1 0 0 0 0 0 4 16 10 14 3 102 42 145 129 72 119 245 424 434 443 612 144 338 403 633 714 759 558 620 668 718 672 717 685 850 855 1050 1004 1068 1054 1225 1145 1228 1418 1332 1392 1170 1081 896
0 0 0 0 0 0 0 0 0 0 0 0 0 0 0 0 0 0 0 0 0 0 0 0 0 0 0 0 0 0 0 4 6 7 10 10 1 0 0 1 0 1 24 38 35 33 153 1 75 128 45 22 29 159 389 361 572 150 314 349 510 317 474 290 602 624 692 744 725 835 889 865 1039 1000 936 1020 1072 1069 990 1413 1421 1321 1217 1059 962
0 0 0 0 0 0 0 0 0 0 0 0 0 0 0 0 0 0 0 0 0 0 0 0 0 0 0 0 0 0 0 0 0 0 0 4 0 0 0 0 0 0 5 52 44 32 28 11 8 163 15 13 24 62 240 223 470 476 612 483 256 421 362 321 468 380 459 691 688 836 1000 1025 1092 1145 1101 1048 1039 1119 1150 1258 1470 1502 1216 1205 1174
0 0 0 0 0 0 0 0 0 0 0 0 0 0 0 0 0 0 0 0 0 0 0 0 0 0 0 0 0 0 0 0 0 0 1 9 13 10 1 0 0 3 4 14 59 42 2 2 6 113 2 16 11 25 60 120 197 180 168 181 294 284 155 169 297 308 336 323 503 698 879 895 922 1074 1252 1334 1267 1076 1072 1355 1405 1295 1271 1563 1247
0 0 0 0 0 0 0 0 0 0 0 0 0 0 0 0 0 0 0 0 0 0 0 0 0 0 0 0 0 0 0 0 0 0 0 6 14 12 7 6 1 1 4 3 16 45 4 9 63 36 0 0 0 0 0 0 105 11 24 80 166 182 0 15 39 79 183 210 238 434 577 685 830 785 1087 1044 1223 1257 1210 1249 1558 1450 1409 1445 1098
0 0 0 0 0 0 0 0 0 0 0 0 0 0 0 0 0 0 0 0 0 0 0 0 0 0 0 0 0 0 0 0 0 0 0 2 12 14 16 11 3 3 0 2 5 2 5 6 0 2 0 0 0 0 0 0 34 3 0 2 30 135 2 0 0 0 0 58 181 192 415 760 734 761 718 776 992 943 1098 1323 1434 1592 1461 1474 1327
0 0 0 0 0 0 0 0 0 0 0 0 0 0 0 0 0 0 0 0 0 0 0 0 0 0 0 0 0 0 0 0 0 0 0 0 2 12 12 11 10 5 4 0 2 0 5 18 20 0 0 0 0 0 0 0 0 0 0 0 0 3 0 0 0 0 12 38 29 79 185 306 487 567 723 768 1001 1257 1242 1392 1428 1391 1093 992 1124
0 0 0 0 0 0 0 0 0 0 0 0 0 0 0 0 0 0 0 0 0 0 0 0 0 0 0 0 0 0 0 0 0 0 0 0 0 2 5 7 12 14 6 6 1 6 0 29 36 15 2 0 0 0 0 0 0 0 0 0 0 0 0 0 0 0 37 76 29 96 90 139 298 521 726 812 1043 1121 996 1264 1277 1087 1087 990 1081
0 0 0 0 0 0 0 0 0 0 0 0 0 0 0 0 0 0 0 0 0 0 0 0 0 0 0 0 0 0 0 0 0 0 0 0 0 0 7 8 11 12 13 12 3 12 23 27 34 25 18 5 0 0 0 0 0 0 0 0 0 0 0 0 0 0 7 96 5 88 83 57 184 325 543 680 814 928 960 1122 1234 1181 995 864 943
0 0 0 0 0 0 0 0 0 0 0 0 0 0 0 0 0 0 0 0 0 0 0 0 0 0 0 0 0 0 0 0 0 0 0 0 0 0 6 14 15 14 12 14 10 20 25 47 37 31 25 17 3 0 0 0 0 0 0 0 0 0 0 0 0 0 0 82 0 45 95 10 64 169 280 507 658 859 1055 1136 994 988 999 1124 895
0 0 0 0 0 0 0 0 0 0 0 0 0 0 0 0 0 0 0 0 0 0 0 0 0 0 0 0 0 0 0 0 0 0 0 0 0 0 0 8 12 12 13 8 12 6 18 30 34 20 20 18 15 1 0 0 0 0 0 0 0 0 0 0 0 0 0 57 54 0 96 50 60 95 211 362 593 775 911 1055 1023 1082 880 869 732
0 0 0 0 0 0 0 0 0 0 0 0 0 0 0 0 0 0 0 0 0 0 0 0 0 0 0 0 0 0 0 0 0 0 0 0 0 0 0 0 2 8 11 5 1 11 12 9 0 16 19 13 0 0 0 0 0 0 0 0 0 0 0 0 0 0 0 0 24 0 28 54 30 94 146 266 476 748 901 956 947 895 950 826 957
0 0 0 0 0 0 0 0 0 0 0 0 0 0 0 0 0 0 0 0 0 0 0 0 0 0 0 0 0 0 0 0 0 0 0 0 0 0 0 0 0 0 1 6 10 8 12 10 9 0 0 0 0 0 0 0 0 0 0 0 0 0 0 0 0 0 0 0 0 0 3 40 3 33 126 214 333 551 787 850 884 803 828 762 832
0 0 0 0 0 0 0 0 0 0 0 0 0 0 0 0 0 0 0 0 0 0 0 0 0 0 0 0 0 0 0 0 0 0 0 0 0 0 0 0 1 0 0 0 1 4 8 10 12 11 0 0 0 0 0 0 0 0 0 0 0 0 0 0 0 0 0 0 0 0 0 47 14 0 75 197 280 451 710 780 890 814 798 694 702
0 0 0 0 0 0 0 0 0 0 0 0 0 0 0 0 0 0 0 0 0 0 0 0 0 0 0 0 0 0 0 0 0 0 0 0 0 2 4 6 4 1 0 0 0 0 0 0 0 0 0 0 0 0 0 0 0 0 0 0 0 0 0 0 0 0 0 0 0 0 0 77 65 0 0 0 130 294 598 648 758 908 716 689 522
0 0 0 0 0 0 0 0 0 0 0 0 0 0 0 0 0 0 0 0 0 0 0 0 0 0 0 0 0 0 0 0 0 0 2 15 10 13 24 18 7 0 0 0 0 0 0 0 0 0 0 1 0 0 0 0 0 0 0 0 0 0 0 0 0 0 0 0 0 0 0 24 97 13 0 0 30 31 436 506 528 663 625 774 782
0 0 0 0 0 0 0 0 0 0 0 0 0 0 0 0 0 0 0 0 0 0 0 0 0 0 0 0 0 0 0 0 4 0 2 26 26 28 32 24 43 0 0 0 0 0 0 0 0 0 0 0 0 0 0 0 0 0 0 0 0 0 0 0 0 0 0 0 0 0 0 0 92 72 0 12 0 119 329 432 419 461 674 633 565
0 0 0 0 0 0 0 0 0 0 0 0 0 0 0 0 0 0 0 0 0 0 0 0 0 0 0 0 0 0 0 0 0 0 0 18 42 59 35 22 25 7 2 0 2 0 0 0 0 0 0 0 0 0 0 0 0 0 0 0 0 0 0 0 0 0 0 0 0 0 0 0 27 88 10 0 3 131 255 374 325 534 485 562 580
0 0 0 0 0 0 0 0 0 0 0 0 0 30 96 3 0 0 0 0 0 0 0 0 0 0 0 0 0 0 0 0 0 0 0 4 31 38 33 13 16 34 22 36 41 26 19 11 0 0 0 0 0 0 0 0 0 0 0 0 0 0 0 1 4 1 0 0 0 0 0 36 85 155 3 2 2 103 303 249 322 315 527 518 464
0 12 0 0 0 0 0 0 0 0 0 0 0 0 40 46 64 0 0 0 0 0 0 0 0 0 0 0 0 0 0 0 0 0 0 2 17 21 26 41 45 60 64 56 78 51 36 29 6 2 1 0 0 0 0 0 0 0 0 4 7 5 0 0 0 1 3 0 0 0 0 0 87 124 54 5 30 57 222 332 360 416 391 413 324
2 0 0 0 0 0 0 0 0 0 0 42 53 49 14 0 183 20 0 0 0 0 0 0 0 0 0 0 0 0 0 0 0 0 0 0 6 18 20 25 39 42 48 66 74 88 69 46 42 30 15 14 3 1 0 2 2 1 9 5 8 12 11 18 20 9 0 0 1 1 0 0 0 93 52 24 18 40 103 214 313 552 414 514 344
0 0 0 0 0 0 0 0 1 0 0 30 71 135 83 4 31 202 0 0 0 0 0 0 0 0 0 0 0 0 0 0 0 0 0 0 0 0 4 2 5 21 19 48 83 85 81 53 44 55 48 54 43 32 25 34 32 28 14 9 8 18 17 30 26 18 11 7 3 9 1 0 0 11 36 18 22 27 58 96 191 440 551 497 501
0 0 0 0 0 0 0 0 0 0 0 37 116 280 194 39 43 66 0 0 0 0 0 0 0 0 0 0 0 0 0 0 0 0 0 0 0 0 0 0 0 0 1 17 49 94 99 71 53 51 60 65 82 91 94 60 53 45 4 14 12 11 14 13 18 31 22 4 0 0 28 1 0 2 18 62 45 23 25 70 97 183 436 422 485
0 0 0 0 0 60 43 11 0 7 0 122 143 258 256 172 94 518 0 0 0 0 0 0 0 0 0 0 0 0 0 0 0 1 1 0 0 0 0 0 0 0 0 3 21 64 94 87 86 82 73 107 131 131 186 111 67 41 29 23 13 4 14 16 63 60 26 5 5 20 11 1 0 0 3 30 19 48 65 33 10 90 228 337 481
0 0 0 0 0 0 0 0 0 0 0 4 42 81 122 191 207 134 0 0 0 0 0 0 0 0 0 0 0 0 0 0 0 0 1 0 0 0 0 0 0 0 0 10 30 68 98 76 86 110 101 107 116 104 184 246 90 54 20 13 16 12 41 16 17 21 23 1 8 4 6 0 0 0 2 22 12 13 64 52 10 99 202 328 414
0 0 0 0 0 0 2 10 1 0 0 0 63 59 36 75 178 13 0 0 0 0 0 0 0 0 0 0 0 0 0 0 0 0 17 0 0 0 0 0 0 0 0 0 13 47 80 76 78 86 81 97 104 85 67 171 149 46 14 4 0 1 20 9 9 16 25 9 19 9 3 1 0 0 0 10 69 2 14 55 28 20 104 323 387
0 0 0 0 0 0 14 14 1 3 43 142 149 42 18 36 192 23 0 0 0 0 0 0 0 0 0 0 0 0 0 0 0 0 18 16 0 0 0 0 0 0 0 0 1 21 69 56 44 42 73 52 63 70 74 109 103 60 0 0 0 3 11 8 10 10 23 27 32 25 27 1 0 0 0 0 88 7 3 33 22 12 24 106 183
0 0 0 0 0 0 0 0 76 327 69 27 6 1 13 80 246 33 0 0 0 0 0 0 0 0 0 0 0 4 0 19 14 3 4 6 0 0 0 0 0 0 0 0 7 49 71 16 2 20 34 10 9 21 40 78 80 59 6 0 0 0 8 11 25 38 32 13 20 54 20 1 0 0 0 3 5 1 0 1 6 11 10 9 11
Wind_Speed
16 13 12 nan nan nan nan nan nan nan nan nan nan nan nan nan nan nan nan nan nan nan nan nan nan nan nan nan nan nan nan 14 13 13 13 13 11 8 5 5 4 3 2 5 5 2 3 4 6 7 10 8 6 9 5 5 5 4 1 7 10 4 7 7 8 9 9 7 9 9 8 7 8 8 7 11 11 10 8 8 8 12 10 8 12
nan nan nan nan nan nan nan nan nan nan nan nan nan nan nan nan nan nan nan nan nan nan nan nan nan nan nan nan nan nan nan nan nan nan 14 14 13 12 9 9 8 8 6 4 5 2 4 5 8 8 9 14 3 13 5 3 5 5 1 5 8 3 6 5 7 8 8 7 7 10 8 8 8 8 8 9 11 11 9 9 8 12 11 7 12
nan nan nan nan nan nan nan nan nan nan nan nan nan nan nan nan nan nan nan nan nan nan nan nan nan nan nan nan nan nan nan nan nan nan 15 16 16 15 14 11 11 11 10 8 6 5 4 6 6 7 8 13 3 16 6 0 4 5 3 4 6 5 5 4 5 6 7 8 7 8 8 8 9 8 8 9 10 11 11 9 9 9 12 9 10
nan nan nan nan nan nan nan nan nan nan nan nan nan nan nan nan nan nan nan nan nan nan nan nan nan nan nan nan nan nan nan 16 17 18 18 19 18 17 17 16 16 16 14 10 8 9 6 5 4 6 6 10 6 18 11 1 3 5 5 3 3 4 1 4 6 7 6 4 6 8 6 7 8 7 7 8 10 9 10 9 8 8 10 10 10
nan nan nan nan nan nan nan nan nan nan nan nan nan nan nan nan nan nan nan nan nan nan nan nan nan nan nan nan nan 19 19 19 20 21 22 22 21 21 20 19 19 19 17 15 11 9 6 4 4 4 5 7 6 15 18 8 4 6 3 2 4 6 5 3 6 6 6 6 4 6 7 6 7 7 7 7 8 10 11 9 8 7 9 10 10
nan nan nan nan nan nan nan nan nan nan nan nan nan nan nan nan nan nan nan nan nan nan nan nan nan 18 19 18 20 21 21 23 23 25 24 23 21 20 20 20 20 19 18 18 15 13 10 6 6 5 5 5 7 8 18 10 5 4 2 4 6 3 7 3 7 9 5 6 7 6 6 7 6 7 6 6 7 11 10 10 9 8 9 10 11
nan nan nan nan nan nan nan nan nan nan nan nan nan nan nan nan nan nan nan nan nan nan nan nan 19 19 20 20 21 22 23 25 26 26 25 23 21 20 20 21 20 19 19 19 17 15 12 11 11 8 8 8 5 2 13 10 6 5 4 3 4 3 2 5 4 11 8 7 8 8 8 7 6 7 8 8 8 10 10 6 10 8 9 10 10
nan nan nan nan nan nan nan nan nan nan nan nan nan nan nan nan nan nan nan nan nan nan nan 17 18 19 20 22 23 23 23 26 26 26 25 24 23 22 21 22 22 22 22 20 19 17 17 15 15 13 10 11 8 5 9 13 11 9 6 4 3 5 8 6 5 8 9 8 6 10 9 7 7 7 7 8 8 11 9 6 7 8 9 10 9
nan nan nan nan nan nan nan nan nan nan nan nan nan nan nan nan nan nan nan nan nan nan nan nan nan 18 19 21 24 24 25 26 26 26 27 26 24 23 23 25 23 24 23 22 21 19 19 20 19 19 16 13 13 10 11 18 18 13 9 6 5 5 6 3 3 6 12 11 5 5 9 7 6 6 7 6 9 10 9 7 5 7 10 10 9
nan nan nan nan nan nan nan nan nan nan nan nan nan nan nan nan nan nan nan nan nan nan nan 20 nan nan nan 22 23 25 26 26 27 27 29 29 23 26 25 25 26 25 24 23 22 21 21 21 22 21 19 17 17 14 10 11 18 17 7 6 7 7 6 5 4 9 12 11 7 6 7 6 4 7 7 7 9 9 8 8 7 6 9 10 8
nan nan nan nan nan nan nan nan nan nan nan nan nan nan nan nan nan nan nan nan nan nan nan nan nan nan nan 24 24 26 26 27 28 28 28 30 28 28 26 27 27 26 26 25 24 23 23 22 21 20 20 21 22 20 12 8 12 16 13 11 13 12 11 11 10 10 11 10 9 5 6 6 5 6 8 7 9 7 8 8 8 8 8 6 7
nan nan nan nan nan nan nan nan nan nan nan nan nan nan nan nan nan nan nan nan nan nan nan nan nan nan nan nan 27 26 nan 28 nan nan nan 28 28 28 29 26 27 27 27 26 25 24 24 23 23 22 23 23 25 24 20 13 10 12 13 16 15 13 12 11 14 14 13 12 10 8 8 6 5 5 7 7 7 7 6 8 9 9 6 6 6
nan nan nan nan nan nan nan nan nan nan nan nan nan nan nan nan nan nan nan nan nan nan nan nan nan nan nan nan nan nan nan nan nan nan nan nan 28 nan 28 28 28 28 27 27 27 27 27 25 24 25 24 24 25 25 24 23 18 13 10 10 13 15 16 15 15 16 15 15 12 11 7 8 5 5 5 8 10 7 7 9 10 8 7 6 6
nan nan nan nan nan nan nan nan nan nan nan nan nan nan nan nan nan nan nan nan nan nan nan nan nan nan nan nan nan nan 29 nan nan nan nan nan nan nan nan 30 30 29 28 26 27 29 28 27 26 26 27 27 27 25 24 23 24 22 14 8 6 9 15 17 16 16 16 15 13 10 9 9 8 7 4 6 9 7 6 9 9 7 7 7 5
nan nan nan nan nan nan nan nan nan nan nan nan nan nan nan nan nan nan nan nan nan nan nan nan nan nan nan nan nan nan nan nan nan nan nan nan nan nan nan nan nan 30 30 nan nan 29 29 29 29 28 27 28 28 28 27 26 23 19 17 14 9 5 7 14 19 17 14 13 12 9 10 13 10 8 6 8 7 8 6 10 8 7 7 9 5
nan nan nan nan nan nan nan nan nan nan nan nan nan nan nan nan nan nan nan nan nan nan nan nan nan nan nan nan nan nan nan nan nan nan nan nan nan nan nan nan nan nan 31 nan nan nan 30 30 32 31 31 30 29 29 29 28 26 23 18 15 13 10 7 7 13 17 17 16 13 14 17 15 9 10 11 9 6 6 6 8 9 7 8 8 7
nan nan nan nan nan nan nan nan nan nan nan nan nan nan nan nan nan nan nan nan nan nan nan nan nan nan nan nan nan nan nan nan nan nan nan nan nan nan nan nan nan nan nan 32 nan nan 31 32 33 33 34 33 32 31 30 29 28 26 24 21 17 13 10 6 7 11 18 21 17 14 19 13 10 15 13 8 7 5 6 8 9 8 7 7 7
nan nan nan nan nan nan nan nan nan nan nan nan nan nan nan nan nan nan nan nan nan nan nan nan nan nan nan nan nan nan nan nan nan nan nan nan nan nan nan nan nan nan nan nan 34 nan 33 32 34 34 35 35 34 33 32 30 29 27 25 23 17 16 14 8 6 8 12 21 19 17 17 14 12 16 14 10 6 5 6 7 8 7 7 6 6
nan nan nan nan nan nan nan nan nan nan nan nan nan nan nan nan nan nan nan nan nan nan nan nan nan nan nan nan nan nan nan nan nan nan nan nan nan nan nan nan nan nan nan nan nan 34 nan 34 34 34 nan 36 35 34 32 32 34 32 29 25 21 18 14 12 9 8 8 12 21 20 18 18 16 15 15 12 13 8 8 9 7 7 8 6 3
nan nan nan nan nan nan nan nan nan nan nan nan nan nan nan nan nan nan nan nan nan nan nan nan nan nan nan nan nan nan nan nan nan nan nan nan nan nan nan nan nan nan nan nan nan nan 36 nan 36 35 35 36 37 37 35 36 34 33 31 29 25 23 21 16 12 7 8 5 17 24 21 19 16 16 16 14 10 11 12 9 10 8 4 7 4
nan nan nan nan nan nan nan nan nan nan nan nan nan nan nan nan nan nan nan nan nan nan nan nan nan nan nan nan nan nan nan nan nan nan nan nan nan nan nan nan nan nan nan nan nan nan 36 nan 37 36 35 35 38 39 38 37 36 36 37 41 33 24 23 21 14 9 5 6 9 21 23 20 19 17 14 15 15 12 12 11 8 6 5 9 4
nan nan nan nan nan nan nan nan nan nan nan nan nan nan nan nan nan nan nan nan nan nan nan nan nan nan nan nan nan nan nan nan nan nan nan nan nan nan nan nan nan nan nan nan nan nan 36 nan nan nan 38 36 36 39 39 40 38 40 41 44 43 40 31 24 19 14 9 4 5 16 25 22 20 20 18 16 14 13 12 11 6 5 8 9 10
nan nan nan nan nan nan nan nan nan nan nan nan nan nan nan nan nan nan nan nan nan nan nan nan nan nan nan nan nan nan nan nan nan nan nan nan nan nan nan nan nan nan nan nan nan nan 34 37 40 40 nan 38 37 38 39 38 39 nan 51 51 49 46 43 38 29 19 16 10 5 6 16 22 23 20 19 18 15 14 12 13 10 8 9 10 12
nan nan nan nan nan nan nan nan nan nan nan nan nan nan nan nan nan nan nan nan nan nan nan nan nan nan nan nan nan nan nan nan nan nan nan nan nan nan nan nan nan nan nan nan nan nan 32 nan 39 41 nan 40 40 39 38 39 40 48 46 51 50 51 48 42 37 33 28 21 8 8 7 17 24 23 20 20 17 15 14 14 14 10 10 10 12
nan nan nan nan nan nan nan nan nan nan nan nan nan nan nan nan nan nan nan nan nan nan nan nan nan nan nan nan nan nan nan nan nan nan nan nan nan nan nan nan nan nan nan nan nan nan 28 nan nan 40 nan nan nan 41 39 39 38 44 52 44 50 51 52 49 45 38 34 35 29 8 9 11 26 28 24 23 21 17 15 15 14 12 10 13 12
nan nan nan nan nan nan nan nan nan nan nan nan nan nan nan nan nan nan nan nan nan nan nan nan nan nan nan nan nan nan nan nan nan nan nan nan nan nan nan nan nan nan nan nan nan nan nan nan nan 37 nan nan nan nan 42 42 41 52 53 47 47 49 50 50 49 45 42 36 33 29 8 8 19 32 30 24 18 14 14 15 13 12 11 10 10
nan nan nan nan nan nan nan nan nan nan nan nan nan nan nan nan nan nan nan nan nan nan nan nan nan nan nan nan nan nan nan nan nan nan nan nan nan nan nan nan nan nan nan nan nan nan nan nan nan 34 nan nan nan nan nan 43 47 53 53 46 45 48 49 49 48 48 48 45 39 34 29 9 9 26 29 22 19 17 13 14 14 13 11 11 9
nan nan nan nan nan nan nan nan nan nan nan nan nan nan nan nan nan nan nan nan nan nan nan nan nan nan nan nan nan nan nan nan nan nan nan nan nan nan nan nan nan nan nan nan nan nan nan nan nan nan nan nan nan nan nan nan 47 nan nan nan 45 45 nan nan nan nan 47 48 44 39 32 24 9 11 25 23 19 17 16 16 17 14 12 10 6
nan nan nan nan nan nan nan nan nan nan nan nan nan nan nan nan nan nan nan nan nan nan nan nan nan nan nan nan nan nan nan nan nan nan nan nan nan nan nan nan nan nan nan nan nan nan nan nan nan nan nan nan nan nan nan nan nan nan nan nan nan 45 nan nan nan nan nan nan 46 45 39 25 18 17 20 28 25 23 21 18 17 16 13 10 7
nan nan nan nan nan nan nan nan nan nan nan nan nan nan nan nan nan nan nan nan nan nan nan nan nan nan nan nan nan nan nan nan nan nan nan nan nan nan nan nan nan nan nan nan nan nan nan nan nan nan nan nan nan nan nan nan nan nan nan nan nan nan nan nan nan nan nan nan nan nan 41 29 17 13 23 27 27 22 19 17 18 18 16 12 9
nan nan nan nan nan nan nan nan nan nan nan nan nan nan nan nan nan nan nan nan nan nan nan nan nan nan nan nan nan nan nan nan nan nan nan nan nan nan nan nan nan nan nan nan nan nan nan nan nan nan nan nan nan nan nan nan nan nan nan nan nan nan nan nan nan nan nan nan nan nan nan 36 25 11 13 32 31 24 22 21 19 17 19 14 12
nan nan nan nan nan nan nan nan nan nan nan nan nan nan nan nan nan nan nan nan nan nan nan nan nan nan nan nan nan nan nan nan nan nan nan nan nan nan nan nan nan nan nan nan nan nan nan nan nan nan nan nan nan nan nan nan nan nan nan nan nan nan nan nan nan nan nan nan nan nan nan nan 35 23 10 19 35 28 22 23 24 23 18 17 14
nan nan nan nan nan nan nan nan nan nan nan nan nan nan nan nan nan nan nan nan nan nan nan nan nan nan nan nan nan nan nan nan nan nan nan nan nan nan nan nan nan nan nan nan nan nan nan nan nan nan nan nan nan nan nan nan nan nan nan nan nan nan nan nan nan nan nan nan nan nan nan nan nan 33 21 14 25 34 27 25 26 24 18 14 14
nan nan nan nan nan nan nan nan nan nan nan nan nan nan nan nan nan nan nan nan nan nan nan nan nan nan nan nan nan nan nan nan nan nan nan nan nan nan nan nan nan nan nan nan nan nan nan nan nan nan nan nan nan nan nan nan nan nan nan nan nan nan nan nan nan nan nan nan nan nan nan nan nan nan 28 20 16 28 31 26 23 21 17 16 18
nan nan nan nan nan nan nan nan nan nan nan nan nan nan nan nan nan nan nan nan nan nan nan nan nan nan nan nan nan nan nan nan nan nan nan nan nan nan nan nan nan nan nan nan nan nan nan nan nan nan nan nan nan nan nan nan nan nan nan nan nan nan nan nan nan nan nan nan nan nan nan nan nan nan 34 26 18 15 25 28 25 23 19 22 26
nan nan nan nan nan nan nan nan nan nan nan nan nan nan nan nan nan nan nan nan nan nan nan nan nan nan nan nan nan nan nan nan nan nan nan nan nan nan nan nan nan nan nan nan nan nan nan nan nan nan nan nan nan nan nan nan nan nan nan nan nan nan nan nan nan nan nan nan nan nan nan nan nan nan 39 30 25 17 19 25 25 22 23 29 33
nan nan nan nan nan nan nan nan nan nan nan nan nan nan nan nan nan nan nan nan nan nan nan nan nan nan nan nan nan nan nan nan nan nan nan nan nan nan nan nan nan nan nan nan nan nan nan nan nan nan nan nan nan nan nan nan nan nan nan nan nan nan nan nan nan nan nan nan nan nan nan nan nan nan nan 34 26 24 19 26 30 31 31 33 36
nan nan nan nan nan nan nan nan nan nan nan nan nan nan nan nan nan nan nan nan nan nan nan nan nan nan nan nan nan nan nan nan nan nan nan nan nan nan nan nan nan nan nan nan nan nan nan nan nan nan nan nan nan nan nan nan nan nan nan nan nan nan nan nan nan nan nan nan nan nan nan nan nan nan nan nan 28 26 23 22 32 36 32 32 35
nan nan nan nan nan nan nan nan nan nan nan nan nan nan nan nan nan nan nan nan nan nan nan nan nan nan nan nan nan nan nan nan nan nan nan nan nan nan nan nan nan nan nan nan nan nan nan nan nan nan nan nan nan nan nan nan nan nan nan nan nan nan nan nan nan nan nan nan nan nan nan nan nan nan nan nan nan nan 29 21 23 33 37 35 34
nan nan nan nan nan nan nan nan nan nan nan nan nan nan nan nan nan nan nan nan nan nan nan nan nan nan nan nan nan nan nan nan nan nan nan nan nan nan nan nan nan nan nan nan nan nan nan nan nan nan nan nan nan nan nan nan nan nan nan nan nan nan nan nan nan nan nan nan nan nan nan nan nan nan nan nan nan 38 30 27 19 22 31 37 35
nan nan nan nan nan nan nan nan nan nan nan nan nan nan nan nan nan nan nan nan nan nan nan nan nan nan nan nan nan nan nan nan nan nan nan nan nan nan nan nan nan nan nan nan nan nan nan nan nan nan nan nan nan nan nan nan nan nan nan nan nan nan nan nan nan nan nan nan nan nan nan nan nan nan nan nan nan 42 36 31 25 20 22 34 41
nan nan nan nan nan nan nan nan nan nan nan nan nan nan nan nan nan nan nan nan nan nan nan nan nan nan nan nan nan nan nan nan nan nan nan nan nan nan nan nan nan nan nan nan nan nan nan nan nan nan nan nan nan nan nan nan nan nan nan nan nan nan nan nan nan nan nan nan nan nan nan nan nan 41 nan nan nan 40 36 35 30 27 27 33 39
nan nan nan nan nan nan nan nan nan nan nan nan nan nan nan nan nan nan nan nan nan nan nan nan nan nan nan nan nan nan nan nan nan nan nan nan nan nan nan nan nan nan nan nan nan nan nan nan nan nan nan nan nan nan nan nan nan nan nan nan nan nan nan nan nan nan nan nan nan nan nan nan nan 40 nan nan nan nan 38 32 38 30 30 33 36
nan nan nan nan nan nan nan nan nan nan nan nan nan nan nan nan 22 nan nan nan nan nan nan nan nan nan nan nan nan nan nan nan nan nan nan nan nan nan nan nan nan nan nan nan nan nan nan nan nan nan nan nan nan nan nan nan nan nan nan nan nan nan nan nan nan nan nan nan nan nan nan nan nan nan nan nan nan nan 39 36 35 39 31 33 33
nan nan nan nan nan nan nan nan nan nan nan nan nan 17 nan nan nan 24 nan nan nan nan nan nan nan nan nan nan nan nan nan nan nan nan nan nan nan nan nan nan nan nan nan nan nan nan nan nan nan nan nan nan nan nan nan nan nan nan nan nan nan nan nan nan nan nan nan nan nan nan nan nan nan nan nan nan nan nan nan nan 37 38 36 29 33
nan nan nan nan nan nan nan nan nan nan nan nan 15 16 19 nan nan nan nan nan nan nan nan nan nan nan nan nan nan nan nan nan nan nan nan nan nan nan nan nan nan nan nan nan nan nan nan nan nan nan nan nan nan nan nan nan nan nan nan nan nan nan nan nan nan nan nan nan nan nan nan nan nan nan nan nan nan nan nan nan nan 34 34 30 29
nan nan nan nan nan nan nan nan nan nan nan 14 14 16 19 22 nan 25 nan nan nan nan nan nan nan nan nan nan nan nan nan nan nan nan nan nan nan nan nan nan nan nan nan nan nan nan nan nan nan nan nan 14 17 19 18 19 nan nan nan nan nan nan nan nan nan nan nan nan nan nan nan nan nan nan nan nan nan nan nan nan nan nan 32 31 35
nan nan nan nan nan nan nan nan nan nan nan nan nan nan 18 21 24 26 nan nan nan nan nan nan nan nan nan nan nan nan nan nan nan nan nan nan nan nan nan nan nan nan nan nan nan nan nan nan nan 11 12 15 20 22 23 21 nan nan nan nan nan nan nan nan nan nan nan nan nan nan nan nan nan nan nan nan nan nan nan nan nan nan 34 30 31
nan nan nan nan nan nan nan nan nan nan nan nan nan nan nan nan 23 nan nan nan nan nan nan nan nan nan nan nan nan nan nan nan nan nan nan nan nan nan nan nan nan nan nan nan nan nan nan nan nan nan nan nan 20 nan nan 25 23 nan nan nan nan nan nan nan nan nan nan nan nan nan nan nan nan nan nan nan nan nan nan nan nan nan 32 30 30
nan nan nan nan nan nan nan nan nan nan nan 13 12 nan nan nan 24 nan nan nan nan nan nan nan nan nan nan nan nan nan nan nan nan nan nan nan nan nan nan nan nan nan nan nan nan nan nan nan nan nan nan nan nan nan nan 25 25 nan nan nan nan nan nan nan nan nan nan nan nan nan nan nan nan nan nan nan nan nan nan nan nan nan nan 28 29
nan nan nan nan nan nan nan nan nan 14 nan nan nan nan nan nan 22 nan nan nan nan nan nan nan nan nan nan nan nan nan nan nan nan nan nan nan nan nan nan nan nan nan nan nan nan nan nan nan nan nan nan nan nan nan nan nan nan nan nan nan nan nan nan nan nan nan nan nan nan nan nan nan nan nan nan nan nan nan nan nan nan nan nan nan nan
Wind_Direction
286 285 289 nan nan nan nan nan nan nan nan nan nan nan nan nan nan nan nan nan nan nan nan nan nan nan nan nan nan nan nan 285 285 286 290 291 293 288 275 257 240 233 266 284 287 260 232 271 330 356 4 355 223 198 180 159 236 268 144 114 124 7 319 331 338 332 332 337 334 322 316 323 310 299 296 291 287 287 294 284 292 275 271 281 291
nan nan nan nan nan nan nan nan nan nan nan nan nan nan nan nan nan nan nan nan nan nan nan nan nan nan nan nan nan nan nan nan nan nan 278 282 282 280 266 259 252 250 239 276 277 298 311 306 332 347 350 355 252 197 165 194 224 255 302 92 106 64 320 325 333 325 323 329 327 320 323 330 319 309 302 296 297 298 302 294 290 286 281 292 291
nan nan nan nan nan nan nan nan nan nan nan nan nan nan nan nan nan nan nan nan nan nan nan nan nan nan nan nan nan nan nan nan nan nan 270 271 270 267 265 256 253 253 254 230 232 225 234 253 297 310 317 354 94 174 163 272 232 260 243 77 108 108 316 314 319 319 325 324 333 333 332 324 313 314 309 301 302 304 304 294 296 292 293 302 296
nan nan nan nan nan nan nan nan nan nan nan nan nan nan nan nan nan nan nan nan nan nan nan nan nan nan nan nan nan nan nan 264 265 263 264 263 262 263 261 259 250 248 251 249 244 229 214 203 262 298 301 357 81 168 166 138 251 260 237 104 58 128 359 314 300 288 285 329 337 315 325 323 306 313 316 303 303 293 289 300 298 311 302 295 302
nan nan nan nan nan nan nan nan nan nan nan nan nan nan nan nan nan nan nan nan nan nan nan nan nan nan nan nan nan 265 266 268 266 261 257 255 254 256 256 257 256 252 247 241 241 245 237 220 231 263 269 346 42 170 185 174 205 244 263 133 198 185 128 342 308 300 308 292 297 285 319 330 304 315 324 309 303 298 293 297 296 298 293 296 302
nan nan nan nan nan nan nan nan nan nan nan nan nan nan nan nan nan nan nan nan nan nan nan nan nan 274 271 268 266 263 264 262 262 259 260 256 254 254 253 254 253 252 254 243 239 234 233 238 238 254 240 288 0 168 188 199 180 189 260 235 231 221 139 105 302 298 303 301 281 296 303 322 302 323 304 302 287 296 292 296 290 290 296 293 302
nan nan nan nan nan nan nan nan nan nan nan nan nan nan nan nan nan nan nan nan nan nan nan nan 270 267 267 270 269 266 263 259 258 258 259 261 257 254 249 250 249 251 253 249 243 238 231 233 232 236 235 241 314 174 186 212 234 182 190 237 265 291 41 114 291 303 310 304 306 288 298 313 311 315 301 298 290 281 271 281 291 293 295 293 297
nan nan nan nan nan nan nan nan nan nan nan nan nan nan nan nan nan nan nan nan nan nan nan 278 274 269 266 267 268 268 267 263 260 259 258 259 256 252 251 251 250 249 248 249 248 244 226 231 235 233 232 233 261 287 209 219 240 217 179 205 260 247 235 191 146 291 295 294 313 298 289 312 323 314 324 308 297 282 295 310 298 306 294 287 287
nan nan nan nan nan nan nan nan nan nan nan nan nan nan nan nan nan nan nan nan nan nan nan nan nan 278 273 267 266 265 266 266 264 261 258 255 250 251 254 251 251 247 248 248 247 248 236 224 232 229 225 229 240 270 253 235 234 226 198 173 220 229 241 269 93 265 266 257 273 285 290 290 301 299 283 314 317 296 309 303 310 312 293 287 291
nan nan nan nan nan nan nan nan nan nan nan nan nan nan nan nan nan nan nan nan nan nan nan 285 nan nan nan 274 269 267 264 265 264 263 262 259 259 254 252 253 251 248 247 248 245 246 244 236 230 230 226 224 234 254 281 263 248 235 192 191 215 219 227 192 198 237 258 263 248 257 279 283 306 311 288 311 302 291 306 294 290 299 292 291 296
nan nan nan nan nan nan nan nan nan nan nan nan nan nan nan nan nan nan nan nan nan nan nan nan nan nan nan 277 275 270 268 265 263 263 262 259 258 254 254 252 251 249 246 245 245 244 243 242 240 240 238 225 227 238 274 289 261 236 217 209 208 200 207 193 207 210 238 244 239 227 256 274 285 304 301 306 289 301 308 294 285 276 272 302 292
nan nan nan nan nan nan nan nan nan nan nan nan nan nan nan nan nan nan nan nan nan nan nan nan nan nan nan nan 275 273 nan 267 nan nan nan 257 256 255 251 253 251 249 245 243 243 243 242 243 241 239 237 232 226 228 234 254 264 247 234 224 215 208 207 207 209 212 219 228 221 196 210 257 258 299 297 295 294 292 303 304 283 287 310 299 294
nan nan nan nan nan nan nan nan nan nan nan nan nan nan nan nan nan nan nan nan nan nan nan nan nan nan nan nan nan nan nan nan nan nan nan nan 256 nan 253 252 252 250 248 245 241 242 241 240 240 239 238 238 238 231 227 231 242 269 267 243 230 220 209 207 211 210 213 221 209 193 227 243 248 250 269 290 281 294 297 296 289 289 288 287 315
nan nan nan nan nan nan nan nan nan nan nan nan nan nan nan nan nan nan nan nan nan nan nan nan nan nan nan nan nan nan 272 nan nan nan nan nan nan nan nan 250 249 250 251 251 244 240 240 239 239 238 235 235 238 242 241 239 241 243 258 269 263 247 232 226 220 213 214 226 219 193 221 239 227 237 242 263 279 281 288 284 293 299 297 302 290
nan nan nan nan nan nan nan nan nan nan nan nan nan nan nan nan nan nan nan nan nan nan nan nan nan nan nan nan nan nan nan nan nan nan nan nan nan nan nan nan nan 248 249 nan nan 242 239 237 236 235 234 232 233 238 241 245 244 242 248 254 261 272 253 239 232 222 211 222 240 219 219 224 215 231 240 246 265 265 284 278 292 294 294 273 304
nan nan nan nan nan nan nan nan nan nan nan nan nan nan nan nan nan nan nan nan nan nan nan nan nan nan nan nan nan nan nan nan nan nan nan nan nan nan nan nan nan nan 248 nan nan nan 240 237 234 234 233 232 231 233 237 242 238 238 240 250 255 264 275 271 263 245 226 217 218 217 225 217 210 230 230 230 246 271 284 279 282 290 289 300 332
nan nan nan nan nan nan nan nan nan nan nan nan nan nan nan nan nan nan nan nan nan nan nan nan nan nan nan nan nan nan nan nan nan nan nan nan nan nan nan nan nan nan nan 246 nan nan 242 238 234 234 233 233 231 231 233 235 240 243 242 239 239 245 258 293 307 273 245 230 222 217 222 216 209 226 223 228 237 263 281 285 286 293 299 294 305
nan nan nan nan nan nan nan nan nan nan nan nan nan nan nan nan nan nan nan nan nan nan nan nan nan nan nan nan nan nan nan nan nan nan nan nan nan nan nan nan nan nan nan nan 242 nan 242 240 236 235 233 233 233 230 228 230 233 241 244 249 244 237 235 250 308 314 275 247 232 230 220 211 205 223 219 214 230 258 261 275 273 273 281 283 315
nan nan nan nan nan nan nan nan nan nan nan nan nan nan nan nan nan nan nan nan nan nan nan nan nan nan nan nan nan nan nan nan nan nan nan nan nan nan nan nan nan nan nan nan nan 241 nan 241 238 237 nan 234 233 232 230 228 226 230 233 232 234 239 244 239 262 319 317 249 232 236 231 217 210 217 219 207 203 226 249 257 259 265 271 261 310
nan nan nan nan nan nan nan nan nan nan nan nan nan nan nan nan nan nan nan nan nan nan nan nan nan nan nan nan nan nan nan nan nan nan nan nan nan nan nan nan nan nan nan nan nan nan 240 nan 238 238 237 235 233 232 229 227 228 230 234 230 233 234 231 235 240 278 337 290 220 228 233 225 215 216 219 218 220 218 225 243 252 240 259 267 274
nan nan nan nan nan nan nan nan nan nan nan nan nan nan nan nan nan nan nan nan nan nan nan nan nan nan nan nan nan nan nan nan nan nan nan nan nan nan nan nan nan nan nan nan nan nan 243 nan 238 238 238 237 233 231 230 229 229 233 231 225 225 234 237 232 237 252 304 343 243 224 225 232 227 223 223 216 217 220 228 241 259 261 265 257 241
nan nan nan nan nan nan nan nan nan nan nan nan nan nan nan nan nan nan nan nan nan nan nan nan nan nan nan nan nan nan nan nan nan nan nan nan nan nan nan nan nan nan nan nan nan nan 243 nan nan nan 237 238 236 233 231 229 229 232 231 229 229 232 230 232 233 230 234 284 280 234 223 218 223 226 225 219 213 214 227 242 243 243 249 247 250
nan nan nan nan nan nan nan nan nan nan nan nan nan nan nan nan nan nan nan nan nan nan nan nan nan nan nan nan nan nan nan nan nan nan nan nan nan nan nan nan nan nan nan nan nan nan 244 243 241 238 nan 235 236 236 233 231 228 nan 227 225 227 229 231 232 230 224 226 235 290 276 228 218 221 223 223 221 218 211 221 231 226 225 239 239 250
nan nan nan nan nan nan nan nan nan nan nan nan nan nan nan nan nan nan nan nan nan nan nan nan nan nan nan nan nan nan nan nan nan nan nan nan nan nan nan nan nan nan nan nan nan nan 248 nan 241 239 nan 235 234 235 234 231 228 221 231 226 225 227 228 230 230 233 228 229 244 323 289 225 219 219 223 223 217 214 220 227 226 223 224 240 254
nan nan nan nan nan nan nan nan nan nan nan nan nan nan nan nan nan nan nan nan nan nan nan nan nan nan nan nan nan nan nan nan nan nan nan nan nan nan nan nan nan nan nan nan nan nan 257 nan nan 239 nan nan nan 233 233 232 232 226 228 230 224 225 224 226 228 229 231 231 224 274 315 243 218 215 217 215 212 214 216 226 230 222 222 243 239
nan nan nan nan nan nan nan nan nan nan nan nan nan nan nan nan nan nan nan nan nan nan nan nan nan nan nan nan nan nan nan nan nan nan nan nan nan nan nan nan nan nan nan nan nan nan nan nan nan 240 nan nan nan nan 232 231 230 225 226 229 226 223 222 222 224 226 228 230 229 223 263 280 233 221 216 212 207 212 215 226 234 229 228 235 241
nan nan nan nan nan nan nan nan nan nan nan nan nan nan nan nan nan nan nan nan nan nan nan nan nan nan nan nan nan nan nan nan nan nan nan nan nan nan nan nan nan nan nan nan nan nan nan nan nan 243 nan nan nan nan nan 232 229 226 228 229 229 224 223 222 222 221 222 225 227 227 222 249 253 228 223 216 209 212 214 224 228 232 231 235 241
nan nan nan nan nan nan nan nan nan nan nan nan nan nan nan nan nan nan nan nan nan nan nan nan nan nan nan nan nan nan nan nan nan nan nan nan nan nan nan nan nan nan nan nan nan nan nan nan nan nan nan nan nan nan nan nan 232 nan nan nan 229 229 nan nan nan nan 220 221 226 228 228 223 233 234 216 205 204 201 212 220 222 226 233 238 248
nan nan nan nan nan nan nan nan nan nan nan nan nan nan nan nan nan nan nan nan nan nan nan nan nan nan nan nan nan nan nan nan nan nan nan nan nan nan nan nan nan nan nan nan nan nan nan nan nan nan nan nan nan nan nan nan nan nan nan nan nan 229 nan nan nan nan nan nan 221 226 227 224 223 224 222 202 197 194 199 210 216 214 216 214 237
nan nan nan nan nan nan nan nan nan nan nan nan nan nan nan nan nan nan nan nan nan nan nan nan nan nan nan nan nan nan nan nan nan nan nan nan nan nan nan nan nan nan nan nan nan nan nan nan nan nan nan nan nan nan nan nan nan nan nan nan nan nan nan nan nan nan nan nan nan nan 225 225 227 225 221 208 201 196 198 206 214 209 211 201 191
nan nan nan nan nan nan nan nan nan nan nan nan nan nan nan nan nan nan nan nan nan nan nan nan nan nan nan nan nan nan nan nan nan nan nan nan nan nan nan nan nan nan nan nan nan nan nan nan nan nan nan nan nan nan nan nan nan nan nan nan nan nan nan nan nan nan nan nan nan nan nan 222 224 232 213 203 202 198 193 199 211 208 205 201 205
nan nan nan nan nan nan nan nan nan nan nan nan nan nan nan nan nan nan nan nan nan nan nan nan nan nan nan nan nan nan nan nan nan nan nan nan nan nan nan nan nan nan nan nan nan nan nan nan nan nan nan nan nan nan nan nan nan nan nan nan nan nan nan nan nan nan nan nan nan nan nan nan 225 230 216 199 201 206 200 196 202 207 208 197 210
nan nan nan nan nan nan nan nan nan nan nan nan nan nan nan nan nan nan nan nan nan nan nan nan nan nan nan nan nan nan nan nan nan nan nan nan nan nan nan nan nan nan nan nan nan nan nan nan nan nan nan nan nan nan nan nan nan nan nan nan nan nan nan nan nan nan nan nan nan nan nan nan nan 233 229 205 199 201 206 203 201 203 200 211 228
nan nan nan nan nan nan nan nan nan nan nan nan nan nan nan nan nan nan nan nan nan nan nan nan nan nan nan nan nan nan nan nan nan nan nan nan nan nan nan nan nan nan nan nan nan nan nan nan nan nan nan nan nan nan nan nan nan nan nan nan nan nan nan nan nan nan nan nan nan nan nan nan nan nan 235 227 206 201 206 212 209 201 193 205 219
nan nan nan nan nan nan nan nan nan nan nan nan nan nan nan nan nan nan nan nan nan nan nan nan nan nan nan nan nan nan nan nan nan nan nan nan nan nan nan nan nan nan nan nan nan nan nan nan nan nan nan nan nan nan nan nan nan nan nan nan nan nan nan nan nan nan nan nan nan nan nan nan nan nan 225 231 227 220 208 214 209 200 199 213 225
nan nan nan nan nan nan nan nan nan nan nan nan nan nan nan nan nan nan nan nan nan nan nan nan nan nan nan nan nan nan nan nan nan nan nan nan nan nan nan nan nan nan nan nan nan nan nan nan nan nan nan nan nan nan nan nan nan nan nan nan nan nan nan nan nan nan nan nan nan nan nan nan nan nan 220 227 232 235 224 222 218 206 207 219 222
nan nan nan nan nan nan nan nan nan nan nan nan nan nan nan nan nan nan nan nan nan nan nan nan nan nan nan nan nan nan nan nan nan nan nan nan nan nan nan nan nan nan nan nan nan nan nan nan nan nan nan nan nan nan nan nan nan nan nan nan nan nan nan nan nan nan nan nan nan nan nan nan nan nan nan 220 231 237 237 222 219 216 219 208 216
nan nan nan nan nan nan nan nan nan nan nan nan nan nan nan nan nan nan nan nan nan nan nan nan nan nan nan nan nan nan nan nan nan nan nan nan nan nan nan nan nan nan nan nan nan nan nan nan nan nan nan nan nan nan nan nan nan nan nan nan nan nan nan nan nan nan nan nan nan nan nan nan nan nan nan nan 220 237 246 240 224 223 218 208 210
nan nan nan nan nan nan nan nan nan nan nan nan nan nan nan nan nan nan nan nan nan nan nan nan nan nan nan nan nan nan nan nan nan nan nan nan nan nan nan nan nan nan nan nan nan nan nan nan nan nan nan nan nan nan nan nan nan nan nan nan nan nan nan nan nan nan nan nan nan nan nan nan nan nan nan nan nan nan 244 251 239 224 220 215 213
nan nan nan nan nan nan nan nan nan nan nan nan nan nan nan nan nan nan nan nan nan nan nan nan nan nan nan nan nan nan nan nan nan nan nan nan nan nan nan nan nan nan nan nan nan nan nan nan nan nan nan nan nan nan nan nan nan nan nan nan nan nan nan nan nan nan nan nan nan nan nan nan nan nan nan nan nan 227 240 247 250 242 226 219 212
nan nan nan nan nan nan nan nan nan nan nan nan nan nan nan nan nan nan nan nan nan nan nan nan nan nan nan nan nan nan nan nan nan nan nan nan nan nan nan nan nan nan nan nan nan nan nan nan nan nan nan nan nan nan nan nan nan nan nan nan nan nan nan nan nan nan nan nan nan nan nan nan nan nan nan nan nan 227 229 238 257 267 241 219 215
nan nan nan nan nan nan nan nan nan nan nan nan nan nan nan nan nan nan nan nan nan nan nan nan nan nan nan nan nan nan nan nan nan nan nan nan nan nan nan nan nan nan nan nan nan nan nan nan nan nan nan nan nan nan nan nan nan nan nan nan nan nan nan nan nan nan nan nan nan nan nan nan nan 223 nan nan nan 227 229 231 240 250 239 227 221
nan nan nan nan nan nan nan nan nan nan nan nan nan nan nan nan nan nan nan nan nan nan nan nan nan nan nan nan nan nan nan nan nan nan nan nan nan nan nan nan nan nan nan nan nan nan nan nan nan nan nan nan nan nan nan nan nan nan nan nan nan nan nan nan nan nan nan nan nan nan nan nan nan 223 nan nan nan nan 224 228 225 231 238 229 226
nan nan nan nan nan nan nan nan nan nan nan nan nan nan nan nan 340 nan nan nan nan nan nan nan nan nan nan nan nan nan nan nan nan nan nan nan nan nan nan nan nan nan nan nan nan nan nan nan nan nan nan nan nan nan nan nan nan nan nan nan nan nan nan nan nan nan nan nan nan nan nan nan nan nan nan nan nan nan 221 218 222 215 223 230 228
nan nan nan nan nan nan nan nan nan nan nan nan nan 349 nan nan nan 337 nan nan nan nan nan nan nan nan nan nan nan nan nan nan nan nan nan nan nan nan nan nan nan nan nan nan nan nan nan nan nan nan nan nan nan nan nan nan nan nan nan nan nan nan nan nan nan nan nan nan nan nan nan nan nan nan nan nan nan nan nan nan 218 216 211 232 228
nan nan nan nan nan nan nan nan nan nan nan nan 342 349 353 nan nan nan nan nan nan nan nan nan nan nan nan nan nan nan nan nan nan nan nan nan nan nan nan nan nan nan nan nan nan nan nan nan nan nan nan nan nan nan nan nan nan nan nan nan nan nan nan nan nan nan nan nan nan nan nan nan nan nan nan nan nan nan nan nan nan 217 212 215 224
nan nan nan nan nan nan nan nan nan nan nan 338 338 348 354 356 nan 336 nan nan nan nan nan nan nan nan nan nan nan nan nan nan nan nan nan nan nan nan nan nan nan nan nan nan nan nan nan nan nan nan nan 251 246 242 241 245 nan nan nan nan nan nan nan nan nan nan nan nan nan nan nan nan nan nan nan nan nan nan nan nan nan nan 218 213 213
nan nan nan nan nan nan nan nan nan nan nan nan nan nan 352 355 354 339 nan nan nan nan nan nan nan nan nan nan nan nan nan nan nan nan nan nan nan nan nan nan nan nan nan nan nan nan nan nan nan 291 270 247 236 234 232 235 nan nan nan nan nan nan nan nan nan nan nan nan nan nan nan nan nan nan nan nan nan nan nan nan nan nan 225 218 217
nan nan nan nan nan nan nan nan nan nan nan nan nan nan nan nan 350 nan nan nan nan nan nan nan nan nan nan nan nan nan nan nan nan nan nan nan nan nan nan nan nan nan nan nan nan nan nan nan nan nan nan nan 230 nan nan 223 236 nan nan nan nan nan nan nan nan nan nan nan nan nan nan nan nan nan nan nan nan nan nan nan nan nan 227 227 223
nan nan nan nan nan nan nan nan nan nan nan 334 337 nan nan nan 346 nan nan nan nan nan nan nan nan nan nan nan nan nan nan nan nan nan nan nan nan nan nan nan nan nan nan nan nan nan nan nan nan nan nan nan nan nan nan 223 227 nan nan nan nan nan nan nan nan nan nan nan nan nan nan nan nan nan nan nan nan nan nan nan nan nan nan 219 222
nan nan nan nan nan nan nan nan nan 327 nan nan nan nan nan nan 340 nan nan nan nan nan nan nan nan nan nan nan nan nan nan nan nan nan nan nan nan nan nan nan nan nan nan nan nan nan nan nan nan nan nan nan nan nan nan nan nan nan nan nan nan nan nan nan nan nan nan nan nan nan nan nan nan nan nan nan nan nan nan nan nan nan nan nan nan